weather.gov     
National Weather Service

Terminal Aerodrome Forecast
NWS Homepage
This page is being discontinued on March 12, 2014.
The same data is available at this site. Please update your bookmarks.
Thank you, and we apologize for the inconvenience.
Please send an email to SR-SRH.Webmaster@noaa.gov with any concerns.


Current Version
Previous Version:    01  02  03  04  05  06  07  08  09  10  11  12  13  14  15  16  17  18  19  20  21  22  23  24  25  
[Printable]
797
FTUS45 KRIW 301100
TAFJAC
TAF
KJAC 301123Z 3012/3112 VRB06KT P6SM VCSH SCT060 BKN090
     FM301500 21011KT P6SM VCSH SCT090 OVC200
     FM302000 21016G26KT P6SM VCTS SCT060CB BKN090
     FM310200 22008KT P6SM VCSH SCT080 BKN110
     FM310900 19009KT P6SM VCSH BKN060
      AMD LTD TO CLD VIS AND WIND=


U.S. Dept. of Commerce
NOAA National Weather Service
1325 East West Highway
Silver Spring, MD 20910
E-mail: w-nws.webmaster@noaa.gov
Page last modified: May 16, 2007
NATIONAL WEATHER SERVICE: for Safety, for Work, for Fun - FOR LIFE